When you browse on this site, cookies collect data to enhance your experience and personalize the content and advertising you see.
Visit our Privacy Policy to learn more. By continuing to use the site, you agree to this use of cookies and data.
  • In Austria
  • List of Countries
  • For 7 days
  • Water Temperature
  • Satellite Maps
  • Weather Map
  • News
  • Weather Widgets
  • user-avatar
    Login

    Hourly Weather Gorzów Wielkopolski

    Today, 23 March, Saturday

    Time Temperature Precipitation Wind Pressure Humidity
    00:00 +7°C° 0 mm 2 mps 768 mmHg 94%
    01:00 +7°C° 0 mm 2 mps 768 mmHg 95%
    02:00 +7°C° 0 mm 2 mps 767 mmHg 95%
    03:00 +7°C° 0 mm 2 mps 767 mmHg 95%
    04:00 +7°C° 0 mm 2 mps 766 mmHg 95%
    05:00 +7°C° 0 mm 2 mps 766 mmHg 95%
    06:00 +7°C° 0 mm 2 mps 766 mmHg 95%
    07:00 +7°C° 0 mm 2 mps 766 mmHg 94%
    08:00 +10°C° 0 mm 2 mps 766 mmHg 85%
    09:00 +13°C° 0 mm 2 mps 765 mmHg 76%
    10:00 +14°C° 0 mm 3 mps 765 mmHg 67%
    11:00 +17°C° 0 mm 3 mps 765 mmHg 62%
    12:00 +18°C° 0 mm 3 mps 765 mmHg 58%
    13:00 +19°C° 0 mm 3 mps 765 mmHg 54%
    14:00 +19°C° 0 mm 4 mps 765 mmHg 56%
    15:00 +18°C° 0 mm 4 mps 765 mmHg 58%
    16:00 +17°C° 0 mm 5 mps 765 mmHg 61%
    17:00 +15°C° 0 mm 5 mps 766 mmHg 66%
    18:00 +13°C° 0 mm 4 mps 766 mmHg 71%
    19:00 +10°C° 0 mm 4 mps 767 mmHg 76%
    20:00 +8°C° 0 mm 4 mps 767 mmHg 76%
    21:00 +8°C° 0 mm 4 mps 768 mmHg 76%
    22:00 +8°C° 0 mm 3 mps 768 mmHg 76%
    23:00 +7°C° 0 mm 3 mps 768 mmHg 77%

    Tomorrow, 24 March, Sunday

    Time Temperature Precipitation Wind Pressure Humidity
    00:00 +6°C° 0 mm 2 mps 768 mmHg 78%
    01:00 +5°C° 0 mm 2 mps 769 mmHg 79%
    02:00 +5°C° 0 mm 2 mps 769 mmHg 80%
    03:00 +5°C° 0 mm 1 mps 769 mmHg 82%
    04:00 +5°C° 0 mm 1 mps 768 mmHg 83%
    05:00 +5°C° 0 mm 1 mps 768 mmHg 82%
    06:00 +5°C° 0 mm 1 mps 768 mmHg 80%
    07:00 +5°C° 0 mm 1 mps 768 mmHg 79%
    08:00 +6°C° 0 mm 1 mps 768 mmHg 69%
    09:00 +8°C° 0 mm 1 mps 768 mmHg 59%
    10:00 +9°C° 0 mm 1 mps 768 mmHg 50%
    11:00 +9°C° 0 mm 2 mps 767 mmHg 46%
    12:00 +10°C° 0 mm 2 mps 767 mmHg 43%
    13:00 +10°C° 0 mm 2 mps 766 mmHg 40%
    14:00 +10°C° 0 mm 3 mps 766 mmHg 41%
    15:00 +10°C° 0 mm 3 mps 765 mmHg 42%
    16:00 +10°C° 0 mm 3 mps 765 mmHg 42%
    17:00 +9°C° 0 mm 2 mps 765 mmHg 47%
    18:00 +7°C° 0 mm 2 mps 765 mmHg 52%
    19:00 +7°C° 0 mm 1 mps 764 mmHg 57%
    20:00 +7°C° 0 mm 1 mps 764 mmHg 60%
    21:00 +6°C° 0 mm 1 mps 764 mmHg 63%
    22:00 +4°C° 0 mm 2 mps 764 mmHg 65%
    23:00 +4°C° 0 mm 2 mps 764 mmHg 67%

    Day after tomorrow, 25 March, Monday

    Time Temperature Precipitation Wind Pressure Humidity
    00:00 +4°C° 0 mm 2 mps 763 mmHg 69%
    01:00 +3°C° 0 mm 3 mps 763 mmHg 71%
    02:00 +2°C° 0 mm 3 mps 762 mmHg 74%
    03:00 +2°C° 0 mm 3 mps 762 mmHg 76%
    04:00 0°C° 0 mm 4 mps 761 mmHg 78%
    05:00 +1°C° 0 mm 5 mps 761 mmHg 77%
    06:00 +1°C° 0 mm 5 mps 760 mmHg 76%
    07:00 +2°C° 0 mm 6 mps 759 mmHg 74%
    08:00 +2°C° 1 mm 6 mps 759 mmHg 77%
    09:00 +2°C° 1 mm 6 mps 758 mmHg 80%
    10:00 +2°C° 1 mm 6 mps 758 mmHg 82%
    11:00 +3°C° 0.5 mm 7 mps 758 mmHg 74%
    12:00 +4°C° 0.5 mm 7 mps 757 mmHg 67%
    13:00 +5°C° 0.5 mm 7 mps 757 mmHg 59%
    14:00 +5°C° 0.4 mm 7 mps 757 mmHg 59%
    15:00 +5°C° 0.4 mm 7 mps 757 mmHg 60%
    16:00 +5°C° 0.4 mm 7 mps 757 mmHg 60%
    17:00 +4°C° 0.2 mm 6 mps 758 mmHg 66%
    18:00 +3°C° 0.2 mm 5 mps 759 mmHg 72%
    19:00 +3°C° 0.2 mm 4 mps 759 mmHg 78%
    20:00 +2°C° 0 mm 5 mps 760 mmHg 80%
    21:00 +1°C° 0 mm 5 mps 761 mmHg 81%
    22:00 +1°C° 0 mm 5 mps 763 mmHg 83%
    23:00 +1°C° 0 mm 5 mps 764 mmHg 84%

    26 March, Tuesday

    Time Temperature Precipitation Wind Pressure Humidity
    00:00 0°C° 0 mm 5 mps 765 mmHg 85%
    01:00 0°C° 0 mm 4 mps 766 mmHg 87%
    02:00 -1°C° 0 mm 4 mps 766 mmHg 86%
    03:00 0°C° 0 mm 3 mps 767 mmHg 86%
    04:00 -1°C° 0 mm 3 mps 767 mmHg 86%
    05:00 -1°C° 0 mm 3 mps 768 mmHg 85%
    06:00 +1°C° 0 mm 2 mps 769 mmHg 84%
    07:00 +1°C° 0 mm 2 mps 769 mmHg 82%
    08:00 +2°C° 0 mm 3 mps 769 mmHg 77%
    09:00 +4°C° 0 mm 3 mps 769 mmHg 71%
    10:00 +5°C° 0 mm 4 mps 769 mmHg 66%
    11:00 +6°C° 0 mm 4 mps 769 mmHg 58%
    12:00 +7°C° 0 mm 5 mps 769 mmHg 51%
    13:00 +8°C° 0 mm 6 mps 768 mmHg 43%
    14:00 +8°C° 0.1 mm 6 mps 768 mmHg 51%
    15:00 +7°C° 0.1 mm 6 mps 767 mmHg 59%
    16:00 +7°C° 0.1 mm 6 mps 767 mmHg 66%
    17:00 +6°C° 0.2 mm 5 mps 767 mmHg 71%
    18:00 +6°C° 0.2 mm 5 mps 767 mmHg 76%
    19:00 +5°C° 0.2 mm 5 mps 767 mmHg 81%
    20:00 +5°C° 0.1 mm 4 mps 767 mmHg 82%
    21:00 +5°C° 0.1 mm 4 mps 767 mmHg 83%
    22:00 +5°C° 0.1 mm 4 mps 767 mmHg 84%
    23:00 +4°C° 0 mm 4 mps 767 mmHg 85%

    27 March, Wednesday

    Time Temperature Precipitation Wind Pressure Humidity
    00:00 +4°C° 0 mm 4 mps 767 mmHg 86%
    01:00 +3°C° 0 mm 4 mps 767 mmHg 87%
    02:00 +3°C° 0.1 mm 3 mps 767 mmHg 88%
    03:00 +4°C° 0.1 mm 3 mps 767 mmHg 88%
    04:00 +4°C° 0.1 mm 3 mps 767 mmHg 89%
    05:00 +4°C° 0 mm 3 mps 767 mmHg 90%
    06:00 +4°C° 0 mm 3 mps 767 mmHg 91%
    07:00 +3°C° 0 mm 3 mps 767 mmHg 92%
    08:00 +4°C° 0 mm 3 mps 767 mmHg 87%
    09:00 +6°C° 0 mm 4 mps 767 mmHg 82%
    10:00 +7°C° 0 mm 4 mps 767 mmHg 78%
    11:00 +7°C° 0.5 mm 4 mps 768 mmHg 80%
    12:00 +7°C° 0.5 mm 4 mps 768 mmHg 83%
    13:00 +7°C° 0.5 mm 4 mps 768 mmHg 85%
    14:00 +8°C° 0.2 mm 3 mps 768 mmHg 85%
    15:00 +8°C° 0.2 mm 3 mps 768 mmHg 86%
    16:00 +9°C° 0.2 mm 3 mps 768 mmHg 86%
    17:00 +8°C° 0.1 mm 3 mps 768 mmHg 88%
    18:00 +8°C° 0.1 mm 3 mps 769 mmHg 90%
    19:00 +8°C° 0.1 mm 3 mps 769 mmHg 92%
    20:00 +8°C° 0 mm 2 mps 769 mmHg 93%
    21:00 +8°C° 0 mm 2 mps 770 mmHg 94%
    22:00 +7°C° 0 mm 2 mps 770 mmHg 95%
    23:00 +7°C° 0 mm 2 mps 770 mmHg 96%

    28 March, Thursday

    Time Temperature Precipitation Wind Pressure Humidity
    00:00 +8°C° 0 mm 1 mps 771 mmHg 97%
    01:00 +8°C° 0 mm 1 mps 771 mmHg 97%
    02:00 +8°C° 0 mm 1 mps 771 mmHg 97%
    03:00 +8°C° 0 mm 1 mps 772 mmHg 97%
    04:00 +8°C° 0 mm 1 mps 772 mmHg 97%
    05:00 +7°C° 0 mm 1 mps 772 mmHg 97%
    06:00 +7°C° 0 mm 1 mps 773 mmHg 97%
    07:00 +7°C° 0 mm 1 mps 773 mmHg 97%
    08:00 +8°C° 0 mm 1 mps 773 mmHg 88%
    09:00 +10°C° 0 mm 1 mps 774 mmHg 80%
    10:00 +11°C° 0 mm 1 mps 774 mmHg 72%
    11:00 +12°C° 0 mm 2 mps 774 mmHg 64%
    12:00 +14°C° 0 mm 2 mps 774 mmHg 56%
    13:00 +15°C° 0 mm 2 mps 774 mmHg 48%
    14:00 +15°C° 0 mm 2 mps 774 mmHg 46%
    15:00 +15°C° 0 mm 2 mps 774 mmHg 45%
    16:00 +15°C° 0 mm 2 mps 774 mmHg 43%
    17:00 +14°C° 0 mm 2 mps 774 mmHg 48%
    18:00 +12°C° 0 mm 1 mps 774 mmHg 54%
    19:00 +10°C° 0 mm 1 mps 774 mmHg 59%
    20:00 +10°C° 0 mm 1 mps 774 mmHg 62%
    21:00 +9°C° 0 mm 1 mps 775 mmHg 65%
    22:00 +8°C° 0 mm 1 mps 775 mmHg 68%
    23:00 +8°C° 0 mm 1 mps 775 mmHg 71%
    Show more